Location: ČR
(50.0000°N, 15.0000°E)
Time: 01:17:45
(UTC+00:00)

N. Korean satellite - Pass Details

Date: 30 September 2021
Orbit: 450 x 495 km, 97.3° (Epoch: 22 October)

Event Time Altitude Azimuth Distance (km) Brightness Sun altitude
Rises 04:17:14 0° 14° (NNE) 2,541 10.5 -7.5°
Reaches altitude 10° 04:19:18 10° 17° (NNE) 1,665 9.6 -7.1°
Maximum altitude 04:22:52 70° 102° (ESE) 522 7.0 -6.6°
Drops below altitude 10° 04:26:27 10° 186° (S) 1,674 9.2 -6.0°
Sets 04:28:32 0° 189° (S) 2,556 10.1 -5.7°
